GFSNIL_prec_precacc_171.txt.gz
Total_Precipitation_Accumulation
0.25 0.19 0.20 0.25 0.25 0.18 0.17 0.17 0.48 0.79 0.78 0.73 1.05 1.25 1.39 1.57 1.39 1.10 0.98 0.96 0.79 0.53
0.24 0.19 0.20 0.23 0.21 0.19 0.21 0.26 0.42 0.51 0.80 0.90 0.96 0.96 1.06 1.25 1.38 1.34 1.08 1.11 1.12 0.81
0.46 0.45 0.39 0.34 0.35 0.38 0.38 0.40 0.42 0.43 0.42 0.58 0.71 0.70 0.69 0.82 1.19 1.44 1.16 1.09 1.41 1.29
0.75 1.07 1.09 0.81 0.78 0.73 0.62 0.59 0.55 0.51 0.52 0.39 0.38 0.46 0.41 0.44 0.77 1.26 1.50 1.36 1.51 1.67
1.72 1.45 1.56 1.46 1.35 1.30 0.93 0.80 0.76 0.67 0.64 0.56 0.56 0.52 0.42 0.37 0.60 0.93 1.40 1.47 1.43 1.51
1.81 2.11 1.65 1.58 1.66 1.41 1.13 0.93 0.89 0.81 0.77 0.62 0.61 0.55 0.49 0.44 0.48 0.84 1.15 1.37 1.63 1.58
1.33 1.66 1.90 1.41 1.31 1.29 1.28 1.13 0.95 0.85 0.93 1.09 1.01 0.78 0.69 0.63 0.82 0.85 1.03 1.31 1.57 1.73
1.37 1.47 1.87 1.57 1.51 1.43 1.44 1.76 1.47 1.30 1.02 0.93 0.95 1.00 1.05 0.99 0.83 0.89 1.02 1.05 1.15 1.41
1.27 1.33 1.33 1.70 1.69 1.82 1.43 1.61 1.81 1.63 1.38 1.30 1.13 1.64 1.45 1.21 1.09 1.01 0.86 0.78 0.62 0.85
1.54 1.58 1.46 1.28 1.48 1.74 1.97 1.79 1.68 2.06 2.04 1.88 1.94 2.08 1.97 1.83 1.43 1.38 1.43 1.31 1.17 0.90
1.15 1.32 1.42 1.67 1.55 1.53 1.93 2.05 2.15 1.91 2.29 2.14 2.04 2.63 2.28 1.90 1.65 1.76 1.85 2.11 1.92 1.69
1.69 1.56 1.34 1.51 2.08 1.92 1.81 1.88 1.89 1.96 1.62 1.76 2.34 2.50 2.30 2.31 1.61 1.62 1.63 1.78 2.02 2.07
1.85 2.02 2.38 2.13 2.01 2.35 2.08 1.90 1.69 1.58 1.69 1.88 1.78 2.28 2.03 2.09 2.26 2.30 2.46 2.02 2.06 2.80
1.42 1.60 1.94 2.15 2.23 2.08 2.14 1.94 1.83 1.77 1.74 1.75 1.97 2.19 2.22 1.86 1.67 2.15 2.50 2.64 2.57 2.85

GFSNIL_prec_precacc_177.txt.gz
Total_Precipitation_Accumulation
0.47 0.45 0.49 0.51 0.41 0.34 0.33 0.29 0.54 0.82 0.79 0.74 1.05 1.25 1.39 1.57 1.39 1.10 0.98 0.96 0.79 0.53
0.52 0.52 0.58 0.62 0.56 0.47 0.42 0.40 0.49 0.55 0.81 0.91 0.97 0.96 1.06 1.25 1.38 1.34 1.08 1.11 1.12 0.81
0.56 0.54 0.48 0.42 0.42 0.42 0.40 0.41 0.42 0.43 0.42 0.58 0.71 0.70 0.69 0.82 1.19 1.44 1.16 1.09 1.41 1.29
0.80 1.12 1.13 0.86 0.84 0.78 0.66 0.62 0.56 0.51 0.52 0.39 0.39 0.47 0.41 0.44 0.77 1.26 1.50 1.36 1.51 1.67
1.75 1.48 1.58 1.49 1.39 1.33 0.95 0.81 0.76 0.68 0.65 0.58 0.58 0.53 0.43 0.37 0.60 0.94 1.40 1.48 1.44 1.51
1.81 2.12 1.65 1.58 1.66 1.41 1.13 0.93 0.89 0.81 0.77 0.62 0.62 0.55 0.50 0.45 0.51 0.86 1.16 1.38 1.63 1.58
1.33 1.66 1.90 1.41 1.31 1.29 1.28 1.13 0.95 0.85 0.93 1.09 1.01 0.79 0.71 0.68 0.87 0.89 1.05 1.32 1.57 1.74
1.37 1.47 1.87 1.57 1.51 1.43 1.44 1.76 1.47 1.30 1.03 0.95 0.99 1.06 1.14 1.11 0.91 0.93 1.03 1.05 1.15 1.41
1.27 1.33 1.33 1.70 1.69 1.82 1.43 1.61 1.82 1.66 1.44 1.37 1.19 1.68 1.52 1.29 1.14 1.04 0.88 0.80 0.64 0.86
1.54 1.58 1.46 1.28 1.48 1.74 1.97 1.80 1.69 2.07 2.06 1.91 1.98 2.14 2.08 1.92 1.50 1.44 1.48 1.35 1.20 0.92
1.15 1.32 1.42 1.67 1.55 1.54 1.94 2.06 2.16 1.92 2.31 2.17 2.07 2.66 2.35 2.03 1.76 1.86 1.92 2.16 1.96 1.72
1.69 1.56 1.34 1.51 2.08 1.92 1.81 1.88 1.89 1.97 1.63 1.78 2.37 2.54 2.35 2.38 1.68 1.69 1.70 1.84 2.05 2.10
1.85 2.02 2.38 2.13 2.01 2.35 2.08 1.90 1.70 1.59 1.70 1.89 1.81 2.33 2.08 2.14 2.31 2.35 2.51 2.05 2.08 2.81
1.42 1.60 1.94 2.15 2.23 2.08 2.14 1.95 1.84 1.78 1.76 1.77 1.98 2.21 2.24 1.87 1.68 2.16 2.50 2.64 2.58 2.85

GFSNIL_prec_precacc_180.txt.gz
Total_Precipitation_Accumulation
0.55 0.54 0.61 0.67 0.68 0.63 0.59 0.55 0.82 1.06 0.99 0.90 1.19 1.36 1.46 1.61 1.42 1.13 1.01 0.98 0.80 0.54
0.55 0.57 0.62 0.67 0.67 0.61 0.57 0.50 0.59 0.62 0.88 0.95 1.00 0.98 1.08 1.27 1.40 1.34 1.09 1.12 1.12 0.81
0.57 0.56 0.49 0.43 0.43 0.44 0.42 0.42 0.43 0.44 0.42 0.58 0.71 0.70 0.69 0.82 1.19 1.44 1.16 1.09 1.41 1.29
0.80 1.12 1.15 0.88 0.87 0.82 0.70 0.64 0.58 0.52 0.52 0.39 0.39 0.47 0.41 0.44 0.77 1.26 1.50 1.36 1.51 1.67
1.75 1.48 1.58 1.49 1.39 1.34 0.95 0.81 0.76 0.68 0.65 0.58 0.58 0.53 0.43 0.37 0.61 0.94 1.41 1.48 1.44 1.52
1.81 2.12 1.65 1.58 1.66 1.41 1.13 0.93 0.89 0.81 0.77 0.62 0.62 0.55 0.50 0.45 0.51 0.86 1.16 1.38 1.64 1.59
1.33 1.66 1.90 1.41 1.31 1.29 1.28 1.13 0.95 0.85 0.93 1.09 1.01 0.79 0.71 0.68 0.87 0.89 1.05 1.32 1.57 1.74
1.37 1.47 1.87 1.57 1.51 1.43 1.44 1.76 1.47 1.30 1.03 0.95 0.99 1.06 1.14 1.11 0.91 0.93 1.03 1.05 1.15 1.41
1.27 1.33 1.33 1.70 1.69 1.82 1.43 1.61 1.82 1.66 1.44 1.37 1.19 1.68 1.52 1.29 1.14 1.04 0.88 0.80 0.64 0.86
1.54 1.58 1.46 1.28 1.48 1.74 1.97 1.80 1.69 2.07 2.06 1.91 1.98 2.14 2.08 1.92 1.50 1.44 1.48 1.35 1.20 0.92
1.15 1.32 1.42 1.67 1.55 1.54 1.94 2.06 2.16 1.92 2.31 2.17 2.07 2.66 2.35 2.03 1.77 1.87 1.93 2.16 1.96 1.73
1.69 1.56 1.34 1.51 2.08 1.92 1.81 1.88 1.89 1.97 1.63 1.78 2.37 2.54 2.35 2.38 1.68 1.69 1.71 1.85 2.07 2.11
1.85 2.02 2.38 2.13 2.01 2.35 2.08 1.90 1.70 1.59 1.70 1.89 1.81 2.33 2.08 2.14 2.31 2.35 2.51 2.05 2.09 2.81
1.42 1.60 1.94 2.15 2.23 2.08 2.14 1.95 1.84 1.78 1.76 1.77 1.98 2.21 2.24 1.87 1.68 2.16 2.50 2.65 2.58 2.85

GFSNIL_prec_precacc_186.txt.gz
Total_Precipitation_Accumulation
0.62 0.62 0.73 0.82 0.86 0.93 1.03 1.09 1.45 1.82 1.85 1.74 1.85 1.81 1.79 1.86 1.61 1.29 1.16 1.11 0.91 0.63
0.61 0.64 0.68 0.74 0.75 0.76 0.81 0.89 1.00 0.98 1.11 1.08 1.07 1.02 1.10 1.29 1.41 1.35 1.10 1.15 1.15 0.84
0.57 0.56 0.50 0.46 0.47 0.49 0.47 0.47 0.46 0.45 0.43 0.58 0.71 0.70 0.69 0.82 1.19 1.44 1.16 1.09 1.41 1.30
0.80 1.13 1.15 0.88 0.87 0.82 0.70 0.64 0.58 0.52 0.52 0.39 0.39 0.47 0.41 0.44 0.77 1.26 1.50 1.36 1.51 1.67
1.75 1.48 1.58 1.49 1.39 1.34 0.95 0.81 0.76 0.68 0.65 0.58 0.58 0.53 0.43 0.37 0.61 0.94 1.41 1.48 1.44 1.52
1.81 2.12 1.65 1.58 1.66 1.41 1.13 0.93 0.89 0.81 0.77 0.62 0.62 0.55 0.50 0.45 0.51 0.86 1.16 1.38 1.64 1.59
1.33 1.66 1.90 1.41 1.31 1.29 1.28 1.13 0.95 0.85 0.93 1.09 1.01 0.79 0.71 0.68 0.87 0.89 1.05 1.32 1.57 1.74
1.37 1.47 1.87 1.57 1.51 1.43 1.44 1.76 1.47 1.30 1.03 0.95 0.99 1.06 1.14 1.11 0.91 0.93 1.03 1.05 1.15 1.41
1.27 1.33 1.33 1.70 1.69 1.82 1.43 1.61 1.82 1.66 1.44 1.37 1.19 1.68 1.52 1.29 1.14 1.04 0.88 0.80 0.64 0.86
1.54 1.58 1.46 1.29 1.48 1.74 1.97 1.80 1.69 2.07 2.06 1.91 1.98 2.14 2.08 1.92 1.50 1.44 1.48 1.35 1.20 0.92
1.19 1.33 1.42 1.67 1.55 1.54 1.94 2.06 2.16 1.92 2.31 2.17 2.07 2.66 2.35 2.03 1.77 1.87 1.93 2.16 1.96 1.73
1.85 1.60 1.35 1.51 2.08 1.92 1.81 1.88 1.89 1.97 1.63 1.78 2.37 2.54 2.35 2.38 1.69 1.70 1.71 1.85 2.07 2.11
2.00 2.12 2.40 2.13 2.01 2.35 2.08 1.90 1.70 1.59 1.70 1.89 1.81 2.33 2.08 2.14 2.32 2.36 2.52 2.06 2.09 2.81
1.52 1.68 1.98 2.17 2.23 2.08 2.14 1.95 1.84 1.78 1.76 1.77 1.99 2.21 2.24 1.87 1.68 2.16 2.51 2.65 2.59 2.86